Херизау, метеограме

Херизау: време по сату
Понедељак, 28 Септембра
Време Падавине Температура Осећа се Притисак Влажност Ветар
18:00 0.01 мм +8.7° +8.6° 691.000 мм.ж.с 73% 1 м/с, Ј
19:00 0.01 мм +7.1° +7.1° 691.000 мм.ж.с 80% 1 м/с, Ј
20:00 0.03 мм +7.2° +7.2° 692.000 мм.ж.с 80% 1 м/с, Ј
21:00 0.03 мм +7.4° +7.4° 692.000 мм.ж.с 80% 1 м/с, Ј
22:00 0.03 мм +7.5° +7.5° 692.000 мм.ж.с 80% 1 м/с, ЈЗ
23:00 0.62 мм +7.3° +7.4° 693.000 мм.ж.с 85% 1 м/с, Ј
Уторак, 29 Септембра
Време Падавине Температура Осећа се Притисак Влажност Ветар
00:00 0.62 мм +7.1° +7.3° 693.000 мм.ж.с 89% 1 м/с, Ј
01:00 0.62 мм +6.9° +7.2° 693.000 мм.ж.с 94% 2 м/с, Ј
02:00 0.64 мм +6.9° +7.2° 693.000 мм.ж.с 94% 2 м/с, Ј
03:00 0.64 мм +6.8° +7.2° 693.000 мм.ж.с 95% 2 м/с, Ј
04:00 0.64 мм +6.8° +7.2° 693.000 мм.ж.с 95% 2 м/с, Ј
05:00 0.67 мм +7.1° +7.4° 693.000 мм.ж.с 95% 2 м/с, Ј
06:00 0.67 мм +7.3° +7.6° 693.000 мм.ж.с 95% 2 м/с, Ј
07:00 0.67 мм +7.5° +7.9° 694.000 мм.ж.с 96% 2 м/с, ЈЗ
08:00 0.9 мм +7.7° +8.1° 694.000 мм.ж.с 96% 2 м/с, ЈЗ
09:00 0.9 мм +7.9° +8.3° 694.000 мм.ж.с 96% 2 м/с, ЈЗ
10:00 0.9 мм +8.1° +8.5° 694.000 мм.ж.с 96% 2 м/с, ЈЗ
11:00 0.21 мм +8.5° +8.9° 694.000 мм.ж.с 95% 2 м/с, ЈЗ
12:00 0.21 мм +8.9° +9.3° 694.000 мм.ж.с 93% 1 м/с, ЈЗ
13:00 0.21 мм +9.3° +9.8° 694.000 мм.ж.с 92% 1 м/с, З
14:00 0.08 мм +9.5° +10° 694.000 мм.ж.с 92% 1 м/с, З
15:00 0.08 мм +9.7° +10.1° 694.000 мм.ж.с 91% 1 м/с, З
16:00 0.08 мм +9.9° +10.3° 694.000 мм.ж.с 91% 0 м/с, З
17:00 0.04 мм +9.2° +9.7° 694.000 мм.ж.с 92% 0 м/с, ЈЗ
18:00 0.04 мм +8.6° +9° 694.000 мм.ж.с 93% 0 м/с, Ј
19:00 0.04 мм +8° +8.4° 695.000 мм.ж.с 95% 0 м/с, ЈИ
20:00 0 мм +7.7° +8.1° 695.000 мм.ж.с 94% 0 м/с, ЈИ
21:00 0 мм +7.4° +7.7° 694.000 мм.ж.с 94% 0 м/с, ЈИ
22:00 0 мм +7.1° +7.4° 694.000 мм.ж.с 94% 0 м/с, Ј
23:00 0 мм +7° +7.3° 694.000 мм.ж.с 94% 0 м/с, Ј
Среда, 30 Септембра
Време Падавине Температура Осећа се Притисак Влажност Ветар
00:00 0 мм +6.8° +7.1° 694.000 мм.ж.с 93% 0 м/с, Ј
01:00 0 мм +6.7° +7° 694.000 мм.ж.с 93% 1 м/с, Ј
02:00 0 мм +6.5° +6.8° 694.000 мм.ж.с 93% 1 м/с, Ј
03:00 0 мм +6.4° +6.6° 693.000 мм.ж.с 93% 1 м/с, Ј
04:00 0 мм +6.2° +6.4° 693.000 мм.ж.с 93% 1 м/с, Ј
05:00 0 мм +6.3° +6.6° 693.000 мм.ж.с 93% 1 м/с, Ј
06:00 0 мм +6.4° +6.7° 693.000 мм.ж.с 92% 1 м/с, ЈИ
07:00 0 мм +6.5° +6.8° 693.000 мм.ж.с 92% 1 м/с, ЈИ
08:00 0 мм +8.3° +8.6° 693.000 мм.ж.с 87% 1 м/с, ЈИ
09:00 0 мм +10.1° +10.4° 693.000 мм.ж.с 83% 1 м/с, И
10:00 0 мм +12° +12.2° 693.000 мм.ж.с 78% 0 м/с, СИ
11:00 0 мм +13.1° +13.3° 693.000 мм.ж.с 72% 1 м/с, СИ
12:00 0 мм +14.2° +14.3° 693.000 мм.ж.с 67% 1 м/с, СИ
13:00 0 мм +15.4° +15.3° 693.000 мм.ж.с 61% 1 м/с, СИ
14:00 0 мм +15.2° +15.3° 692.000 мм.ж.с 63% 1 м/с, СИ
15:00 0 мм +15.1° +15.2° 692.000 мм.ж.с 65% 1 м/с, СИ
16:00 0 мм +15° +15.1° 692.000 мм.ж.с 67% 1 м/с, СИ
17:00 0 мм +13° +13.3° 691.000 мм.ж.с 75% 1 м/с, СИ

Такође

Meteograms hourly weather Мапе времена Преглед времена
Meteograms hourly weather Мапе времена Преглед времена
 
Време у Србији:
О проjекту
© meteoprog.rs 2003-2020.
Meteoprog.ua - погода в Украине 0.0689
sitemap